Weather History for Akron, CO

Change the Weather History Date:

Wednesday, May 8, 2013

  Actual Average Record
Temperature  
Mean Temperature 58 °F 55 °F  
Max Temperature 72 °F 68 °F 88 °F (1956)
Min Temperature 43 °F 41 °F 30 °F (1965)
Degree Days  
Heating Degree Days 7    
Month to date heating degree days 156  
Cooling Degree Days 0    
Month to date cooling degree days 0  
Growing Degree Days 8 (Base 50)    
Moisture  
Dew Point 44 °F    
Average Humidity 62    
Maximum Humidity 93    
Minimum Humidity 31    
Precipitation  
Precipitation 0.52 in 0.08 in 2.27 in (1995)
Month to date precipitation 0.79 0.66  
Year to date precipitation 3.24 3.92  
Sea Level Pressure  
Sea Level Pressure 29.94 in    
Wind  
Wind Speed 10 mph (West)    
Max Wind Speed 38 mph    
Max Gust Speed 49 mph    
Visibility 9 miles    
Events Rain , Thunderstorm    
T = Trace of Precipitation, MM = Missing Value Source: NWS Daily Summary

Daily Weather History Graph

Daily Weather History Graph

Search for Another Location

Airport:

Trip Planner

Search our weather history database for the weather conditions in past years. The results will help you decide how hot, cold, wet, or windy it might be!

Date:

Astronomy

May. 08, 2013 Rise Set
Actual Time 5:43 AM MDT 7:55 PM MDT
Civil Twilight 5:13 AM MDT 8:25 PM MDT
Nautical Twilight 4:36 AM MDT 9:02 PM MDT
Astronomical Twilight 3:56 AM MDT 9:43 PM MDT
Moon 4:53 AM MDT (5/8) 6:55 PM MDT (5/8)
Length of Visible Light 15h 11m
Length of Day
14h 11m
Waning Crescent, 2% of the Moon is Illuminated
May 8
Waning Crescent
May 9
New
May 17
First Quarter
May 24
Full
May 31
Last Quarter

Hourly Weather History & Observations

Time (MDT) Temp. Windchill Dew Point Humidity Pressure Visibility Wind Dir Wind Speed Gust Speed Precip Events Conditions
12:53 AM 51.1 °F - 44.1 °F 77% 29.85 in 10.0 mi NW 13.8 mph - N/A   Clear
1:53 AM 48.9 °F - 44.1 °F 83% 29.86 in 10.0 mi East 9.2 mph - N/A   Overcast
2:53 AM 48.0 °F - 43.0 °F 83% 29.85 in 10.0 mi SSE 5.8 mph - N/A   Clear
3:53 AM 45.0 °F - 41.0 °F 86% 29.87 in 10.0 mi Calm Calm - N/A   Clear
4:53 AM 45.0 °F 42.6 °F 39.9 °F 82% 29.88 in 10.0 mi WSW 4.6 mph - N/A   Clear
5:53 AM 45.0 °F 43.5 °F 41.0 °F 86% 29.90 in 10.0 mi West 3.5 mph - N/A   Clear
6:53 AM 50.0 °F - 46.0 °F 86% 29.89 in 10.0 mi SW 4.6 mph - N/A   Clear
7:53 AM 52.0 °F - 46.0 °F 80% 29.90 in 10.0 mi WSW 8.1 mph - N/A   Clear
8:53 AM 55.9 °F - 46.0 °F 69% 29.91 in 10.0 mi WSW 10.4 mph - N/A   Clear
9:53 AM 57.9 °F - 45.0 °F 62% 29.92 in 10.0 mi Variable 3.5 mph - N/A   Clear
10:53 AM 62.1 °F - 44.1 °F 52% 29.91 in 10.0 mi Variable 4.6 mph - N/A   Mostly Cloudy
11:53 AM 66.9 °F - 43.0 °F 42% 29.88 in 10.0 mi Variable 3.5 mph - N/A   Mostly Cloudy
12:53 PM 68.0 °F - 43.0 °F 40% 29.85 in 10.0 mi NNE 5.8 mph - N/A   Scattered Clouds
1:53 PM 70.0 °F - 37.0 °F 30% 29.83 in 10.0 mi NE 13.8 mph 21.9 mph N/A   Mostly Cloudy
2:53 PM 66.9 °F - 39.9 °F 37% 29.87 in 10.0 mi SE 18.4 mph 35.7 mph N/A   Mostly Cloudy
2:59 PM 53.6 °F - 39.2 °F 58% 29.99 in 10.0 mi SW 31.1 mph 43.7 mph N/A Thunderstorm Mostly Cloudy
3:10 PM 51.8 °F - 41.0 °F 67% 29.99 in 10.0 mi SW 32.2 mph 43.7 mph N/A Thunderstorm Overcast
3:53 PM 48.9 °F - 44.1 °F 83% 29.96 in 8.0 mi SSW 27.6 mph 42.6 mph 0.18 in Rain Light Rain
4:53 PM 50.0 °F - 44.1 °F 80% 29.94 in 10.0 mi SW 23.0 mph 32.2 mph 0.00 in   Clear
5:53 PM 52.0 °F - 44.1 °F 74% 29.97 in 10.0 mi WSW 10.4 mph - N/A   Overcast
6:18 PM 48.2 °F - 46.4 °F 93% 30.06 in 6.0 mi North 11.5 mph 24.2 mph 0.03 in Rain Rain
6:53 PM 48.9 °F - 46.0 °F 90% 29.99 in 2.0 mi WNW 4.6 mph - 0.13 in Rain Heavy Rain
7:12 PM 48.2 °F - 46.4 °F 93% 30.04 in 5.0 mi West 8.1 mph - 0.05 in Rain Light Rain
7:30 PM 48.2 °F - 46.4 °F 93% 30.04 in 2.5 mi West 5.8 mph - 0.12 in Rain Rain
7:40 PM 48.2 °F - 46.4 °F 93% 30.05 in 4.0 mi NNW 12.7 mph - 0.15 in Rain Rain
7:53 PM 48.0 °F - 46.0 °F 93% 30.00 in 7.0 mi NW 8.1 mph - 0.18 in Rain Rain
8:53 PM 48.0 °F - 46.0 °F 93% 29.97 in 10.0 mi WNW 8.1 mph - 0.02 in   Overcast
9:53 PM 48.0 °F - 45.0 °F 89% 29.97 in 10.0 mi NW 9.2 mph - N/A   Mostly Cloudy
10:53 PM 46.0 °F 40.2 °F 44.1 °F 93% 29.97 in 10.0 mi NNW 12.7 mph - 0.01 in   Clear
11:53 PM 45.0 °F 39.7 °F 43.0 °F 93% 29.98 in 10.0 mi NNW 10.4 mph - N/A   Clear